STARLINK-1038, 44743

Orbit data source: Space-Track

STARLINK-1038, 44743 is a payload satellite owned by SpaceX/Seattle (US) in LEO that was launched on Mon, 11 Nov 2019 UTC via an FALCON 9 launch vehicle from the Air Force Eastern Test Range (AFETR). Payloads include a variety of satellites, spacecraft, and rockets equipped with specific instruments for various scientific and technological missions. These include communications satellites like Starlink; space stations such as the ISS; scientific satellites like the Hubble; Earth observation satellites from companies like Planet Labs, Umbra, and HawkEye 360; GPS; miniature CubeSats for education and research; and military/defense satellites.

Loading next visibility...
STARLINK-1038 details
Identifier
44743, 2019-074AG
Orbit
LEO
Last TLE update13 hours ago
Origin
Flag of USSpaceX/Seattle (US)
ManufacturerSpaceX/Seattle
MissionPartially operational Commercial Communications
Bus & MotorSTARLINK, Unknown motor
Mass260 kg wet, ~248 kg dry
Launch date (UTC)
2019-11-11 (5 years ago)
Launch vehicle
FALCON 9
Launch site
Air Force Eastern Test Range (AFETR)
Object type
Payload
Rocket body
Debris
Shape & HBRBox + 1 Pan, 8.86 m
Radar Cross Section13.562 m², Large (>1 m²)

Expand to show TLE details & history

TLE from 13 hours ago
0 STARLINK-1038
1 44743U 19074AG  25024.00001157  .00496149  00000-0  15491-2 0  9995
2 44743  53.0463 238.7092 0004796 199.4468 117.5264 15.89762475  5963
Epoch: 2025-01-24T00:00Z
Definitive object data (Epoch: 2025-01-24T00:00:00.999Z)
Latitude-33.22263°
Longitude85.7998°
Altitude314.825 km
Speed7.718 km/s
True Right ascension13h 57m 29s
True Declination-33° 03' 17"
Sunlit
Object was in daylight at TLE epoch
Visualization TLE readout
Latitude47.98511°
Longitude168.6092°
Altitude309.106 km
Speed7.727 km/s
Apparent Right ascension22h 49m 19s
Apparent Declination7° 49' 54"
Sunlit
Object is in daylight
Visualization observer readout
Local Sidereal Time13:47:54
Azimuth51.347° ENE
Elevation-26.947°
Doppler factor1
Orbital elements
Apogee altitude306.434 km
Perigee altitude300.026 km
Semi-major axis6,681.367 km
Eccentricity0.0004796
Inclination53.0463°
RAAN238.7092°
Arg. of periapsis199.4468°
True anomaly117.57512°
Mean anomaly117.5264°
Eccentric anomaly117.55076°
Mean motion3.97416 °/min
BSTAR0.0015491
Orbital period90.59 mins
Loading maneuver chart data...

STARLINK-1038 Visibility forecast

Observer location: undefined°, undefined

Span
Click to sort rows by Start time (UTC) header in descending order
Start Az.
Max El. time (UTC)
Max El. Az.
Max El.
End time (UTC)
End Az.
4 mins2025-01-24 16:58:02.810Z230.001° WSW2025-01-24 17:00:02.810Z45.714° ENE43.726°2025-01-24 17:02:02.810Z49.804° ENE
|